[[{"header":{"parameterUnit":"m.s-1","parameterCategory":1,"la1":30.2991,"la2":30.254,"lo1":-89.0895,"lo2":-89.0444,"dy":0.0017,"dx":0.0017,"nx":28,"ny":28,"refTime":"2025-02-28T09:00:00:Z","depth":0,"parameterNumber":2,"parameterNumberName":"U-component_of_WINDS"},"data":[0,0,0,0,0,0,0,0,0,0,0,0,0,0,0,0,0,0,0,0,0,0,0,0,0,0,0,0,0,0,0,0,0,0,0,0,0,0,0,0,0,0,0,0,0,0,0,0,0,0,0,0,0,0,0,0,0,0,0.2188,0.2188,0,0.2216,0.2216,0.2217,0.2213,0.2213,0.2212,0.2212,0.2242,0.2244,0.2245,0,0,0,0,0,0,0,0,0,0,0,0,0,0.2131,0.2132,0.2188,0.2188,0.2188,0.2216,0.2216,0.2217,0.2213,0.2213,0.2212,0.2211,0.2242,0.2243,0.2245,0,0,0,0,0,0,0,0,0,0,0,0,0,0.2157,0.2132,0.2187,0.219,0.219,0.2216,0.2216,0.2217,0.2213,0.2213,0.2212,0.2211,0.2242,0.2243,0.2245,0.2271,0,0,0.2251,0.2252,0,0,0,0,0,0,0,0,0.2156,0.2159,0.2189,0.219,0.219,0.221,0.2208,0.2235,0.2213,0.2205,0.2212,0.2211,0.2232,0.2235,0.2242,0.2272,0.2274,0.2251,0.2252,0.2253,0.2254,0,0,0,0,0,0,0,0.2154,0.2158,0.2199,0.2189,0.219,0.219,0.2193,0.2213,0.2222,0.2205,0.2205,0.2208,0.2233,0.224,0.2243,0.2274,0.2251,0.2253,0.2254,0.2255,0.2326,0.2327,0,0,0,0,0,0,0.2151,0.2156,0.2198,0.22,0.2171,0.2191,0.2194,0.2205,0.2222,0.2224,0.2209,0.2208,0.2237,0.224,0.2244,0.2275,0.2253,0.2255,0.2256,0.2326,0.2327,0.2327,0,0,0,0,0,0,0.215,0.2155,0.2197,0.2178,0.2183,0.2193,0.2204,0.2205,0.2213,0.2225,0.2226,0.2215,0.2237,0.2241,0.2264,0.2276,0.2256,0.2257,0.2325,0.2326,0.2327,0.2337,0,0,0,0,0,0,0.2148,0.2155,0.2164,0.2178,0.2184,0.2216,0.2205,0.2207,0.2216,0.2215,0.2231,0.2233,0.2237,0.2261,0.2266,0.2278,0.2259,0.2324,0.2325,0.2327,0.2336,0.2338,0.2341,0,0,0,0,0,0.2146,0.2166,0.2165,0.217,0.2197,0.2217,0.2221,0.2224,0.2217,0.2227,0.2234,0.2232,0.2273,0.2263,0.2269,0.2282,0.2323,0.2325,0.2327,0.2335,0.2338,0.2341,0,0,0,0,0,0,0.2155,0.2168,0.2167,0.2192,0.2203,0.2216,0.2229,0.2228,0.2242,0.2241,0.2245,0.2248,0.2272,0.2279,0.2267,0.2307,0.2297,0.23,0.2302,0.2305,0.2307,0.2305,0.226,0,0,0,0,0,0.2159,0.2174,0.2186,0.2207,0.2212,0.222,0.2229,0.223,0.2243,0.2248,0.2257,0.2269,0.2285,0.2295,0.231,0.2336,0.234,0.2348,0.235,0.2352,0.2355,0.2369,0.2373,0.2333,0.2333,0.2333,0,0,0.2169,0.2178,0.2188,0.2208,0.2217,0.2233,0.2224,0.2241,0.2253,0.225,0.2273,0.2279,0.2293,0.2318,0.2329,0.2325,0.2366,0.2354,0.2356,0.2358,0.2371,0.2375,0.2378,0.2334,0.2334,0.2334,0,0,0.2195,0.2204,0.2222,0.2231,0.2244,0.2249,0.2253,0.2266,0.2271,0.2293,0.2291,0.2305,0.2332,0.2342,0.2351,0.2379,0.2378,0.2384,0.2397,0.2411,0.2414,0.2417,0.2427,0.2431,0.2386,0.2386,0.2386,0,0.2206,0.2229,0.2232,0.2249,0.2258,0.2255,0.2274,0.2283,0.2301,0.2307,0.2302,0.2335,0.2344,0.2371,0.2378,0.2385,0.239,0.2383,0.2413,0.2416,0.2419,0.2429,0.2432,0.2387,0.2387,0.2387,0.2387,0,0.2242,0.2258,0.2271,0.2288,0.2298,0.2316,0.2321,0.2332,0.2332,0.2337,0.2359,0.237,0.2387,0.2394,0.2395,0.242,0.2417,0.2412,0.2403,0.2423,0.2433,0.2436,0.2388,0.2388,0.2388,0.2388,0,0,0.2275,0.2292,0.2297,0.2304,0.2318,0.2331,0.2348,0.2364,0.2373,0.2385,0.24,0.2422,0.2418,0.2427,0.2429,0.2441,0.2463,0.2435,0.2435,0.244,0.2492,0.2495,0.25,0.2462,0.2462,0.2463,0.2491,0,0.2303,0.2334,0.2336,0.2363,0.2378,0.2376,0.2391,0.2401,0.2406,0.242,0.2425,0.2441,0.2434,0.2439,0.2451,0.2458,0.2474,0.2456,0.2476,0.2477,0.2473,0.2505,0.2509,0.2534,0.2494,0.2495,0.2495,0,0.234,0.2352,0.2381,0.2392,0.2399,0.2412,0.2427,0.2439,0.2451,0.2454,0.2464,0.2464,0.2482,0.2471,0.2496,0.2484,0.2492,0.2496,0.2497,0.25,0.2488,0.2508,0.2543,0.2547,0.2501,0.2501,0.25,0,0.2361,0.2385,0.2405,0.2412,0.2425,0.2435,0.2441,0.2452,0.2461,0.2474,0.248,0.2494,0.2502,0.2514,0.2518,0.2509,0.2543,0.2532,0.2546,0.2545,0.2553,0.2553,0.259,0.2558,0.2558,0.2558,0.2558,0,0.2392,0.241,0.2415,0.2428,0.2448,0.245,0.2469,0.2475,0.2484,0.2498,0.2497,0.2509,0.2514,0.2527,0.253,0.255,0.2554,0.2557,0.2558,0.2557,0.2557,0.2563,0.2562,0.2559,0.2559,0.2558,0.2558,0,0.242,0.2424,0.2446,0.2457,0.246,0.2474,0.2483,0.2495,0.2499,0.2517,0.2521,0.2528,0.2544,0.2548,0.2568,0.257,0.2593,0.2592,0.2589,0.259,0.2603,0.2602,0.2646,0.2651,0.2615,0.2616,0.2616,0,0.244,0.2454,0.2465,0.2474,0.248,0.2495,0.2504,0.2506,0.2516,0.2529,0.2539,0.2555,0.2567,0.2593,0.26,0.2614,0.2614,0.2628,0.2616,0.2615,0.2614,0.2614,0.2615,0.2631,0.2631,0.2631,0.2632,0,0.2475,0.2476,0.2489,0.2502,0.2513,0.2524,0.2534,0.2541,0.2545,0.2556,0.2572,0.2581,0.26,0.2616,0.263,0.2637,0.2635,0.2635,0.2639,0.2639,0.2637,0.2638,0.2596,0.2634,0.2634,0.2634,0.2634,0.2634,0.25,0.2511,0.2521,0.2535,0.2543,0.2553,0.2564,0.2569,0.2582,0.2598,0.2598,0.2615,0.2626,0.2645,0.2652,0.2666,0.2662,0.2667,0.2669,0.267,0.2671,0.2634,0.2668,0.2668,0.2668,0.2668,0.2668,0,0.2535,0.254,0.2553,0.2567,0.2578,0.2575,0.2586,0.2595,0.261,0.262,0.2632,0.265,0.2664,0.2672,0.2686,0.2696,0.2695,0.2699,0.2699,0.27,0.2674,0.2669,0.2699,0.2699,0.2699,0.2699,0.2699,0.2699,0.2554,0.2574,0.2576,0.2599,0.2604,0.2621,0.2627,0.2636,0.2643,0.2663,0.2675,0.268,0.2688,0.2703,0.2716,0.2718,0.2724,0.2728,0.273,0.2706,0.2702,0.2699,0.2695,0.273,0.273,0.2755,0.2755,0.2755]},{"header":{"parameterUnit":"m.s-1","parameterCategory":1,"la1":30.2991,"la2":30.254,"lo1":-89.0895,"lo2":-89.0444,"dy":0.0017,"dx":0.0017,"nx":28,"ny":28,"refTime":"2025-02-28T09:00:00:Z","depth":0,"parameterNumber":3,"parameterNumberName":"V-component_of_WINDS"},"data":[0,0,0,0,0,0,0,0,0,0,0,0,0,0,0,0,0,0,0,0,0,0,0,0,0,0,0,0,0,0,0,0,0,0,0,0,0,0,0,0,0,0,0,0,0,0,0,0,0,0,0,0,0,0,0,0,0,0,0.1997,0.1997,0,0.1963,0.1962,0.1962,0.1923,0.1923,0.1922,0.1922,0.1889,0.1888,0.1888,0,0,0,0,0,0,0,0,0,0,0,0,0,0.2031,0.2031,0.1997,0.1997,0.1996,0.1963,0.1962,0.1962,0.1923,0.1923,0.1922,0.1921,0.1889,0.1888,0.1888,0,0,0,0,0,0,0,0,0,0,0,0,0,0.2009,0.2031,0.1997,0.1973,0.197,0.1963,0.1962,0.1962,0.1924,0.1923,0.1922,0.1921,0.1889,0.1888,0.1888,0.1902,0,0,0.1886,0.1886,0,0,0,0,0,0,0,0,0.201,0.2008,0.1977,0.1975,0.1972,0.1946,0.1962,0.1942,0.1924,0.1941,0.1922,0.1921,0.1909,0.1907,0.1902,0.1901,0.1899,0.1886,0.1886,0.1886,0.1886,0,0,0,0,0,0,0,0.2012,0.2009,0.1984,0.1977,0.1973,0.1965,0.196,0.1958,0.1931,0.194,0.1937,0.1933,0.1907,0.1903,0.1901,0.1899,0.1886,0.1886,0.1886,0.1885,0.1909,0.191,0,0,0,0,0,0,0.2017,0.201,0.1985,0.1983,0.1989,0.1965,0.196,0.1955,0.193,0.1926,0.1934,0.1932,0.1904,0.1902,0.19,0.1916,0.1886,0.1885,0.1885,0.1908,0.1909,0.191,0,0,0,0,0,0,0.2018,0.2015,0.1986,0.1996,0.1991,0.1965,0.196,0.1955,0.1951,0.1926,0.1921,0.1934,0.1903,0.1901,0.1902,0.1914,0.1885,0.1885,0.1907,0.1908,0.1909,0.1947,0,0,0,0,0,0,0.2019,0.2015,0.202,0.1996,0.1991,0.1988,0.1961,0.1955,0.195,0.1946,0.1925,0.1921,0.1902,0.1903,0.1902,0.1913,0.1884,0.1906,0.1907,0.1909,0.1945,0.195,0.1954,0,0,0,0,0,0.202,0.2032,0.202,0.2017,0.1996,0.1989,0.1986,0.1964,0.1951,0.1956,0.194,0.1921,0.1913,0.1904,0.1902,0.1913,0.1905,0.1907,0.1909,0.1943,0.1949,0.1954,0,0,0,0,0,0,0.2059,0.2029,0.2015,0.202,0.2007,0.1983,0.1988,0.1971,0.1963,0.196,0.1933,0.1929,0.1934,0.1923,0.1914,0.1926,0.1906,0.1908,0.1933,0.1938,0.1943,0.1945,0.1884,0,0,0,0,0,0.2068,0.2064,0.2038,0.2045,0.2039,0.2015,0.2011,0.1995,0.1981,0.1976,0.196,0.1948,0.1943,0.194,0.1933,0.1943,0.1938,0.195,0.1954,0.1958,0.196,0.1966,0.1971,0.1917,0.1917,0.1917,0,0,0.2086,0.2069,0.2069,0.2052,0.204,0.2038,0.201,0.2009,0.2007,0.1976,0.1976,0.1964,0.1949,0.1955,0.1957,0.1947,0.1974,0.1961,0.1964,0.1964,0.1968,0.1973,0.1978,0.1918,0.1918,0.1918,0,0,0.2119,0.2106,0.211,0.2099,0.2082,0.2065,0.2067,0.2044,0.2035,0.2035,0.2012,0.201,0.2001,0.1991,0.1985,0.2015,0.1998,0.2014,0.2038,0.2043,0.2047,0.2051,0.2063,0.2067,0.2016,0.2016,0.2016,0,0.2145,0.2139,0.2115,0.2114,0.2108,0.2079,0.2084,0.2075,0.2057,0.2053,0.2042,0.203,0.2018,0.2022,0.2029,0.2025,0.2026,0.2016,0.2049,0.2052,0.2055,0.2066,0.207,0.2018,0.2017,0.2017,0.2017,0,0.2172,0.2169,0.2175,0.2157,0.2152,0.2154,0.2131,0.2128,0.2113,0.2098,0.2099,0.2083,0.2073,0.2073,0.2058,0.2075,0.2069,0.2053,0.2033,0.2063,0.2072,0.2076,0.2021,0.202,0.2019,0.2019,0,0,0.2229,0.2198,0.2201,0.2193,0.2172,0.2169,0.217,0.216,0.2159,0.2147,0.2149,0.2142,0.2127,0.2121,0.2104,0.2109,0.2135,0.2093,0.2092,0.2102,0.2153,0.2166,0.2171,0.2123,0.2124,0.2124,0.2155,0,0.2259,0.2259,0.2237,0.2243,0.2241,0.2213,0.2215,0.2202,0.2189,0.2185,0.217,0.2166,0.2147,0.2143,0.2146,0.2131,0.2145,0.2128,0.2125,0.2125,0.213,0.2176,0.2189,0.2219,0.2158,0.2159,0.2159,0,0.2294,0.2284,0.229,0.2269,0.2267,0.2269,0.2258,0.2254,0.224,0.223,0.2223,0.2204,0.2205,0.2185,0.2187,0.2176,0.2173,0.2166,0.2166,0.2166,0.2145,0.2177,0.2227,0.2232,0.2165,0.2165,0.2164,0,0.2335,0.2324,0.2326,0.232,0.2296,0.2297,0.2288,0.2272,0.2268,0.2259,0.2256,0.2247,0.2243,0.2237,0.2217,0.2204,0.2221,0.2199,0.2213,0.2214,0.2219,0.2219,0.227,0.2216,0.2216,0.2216,0.2216,0,0.2371,0.2377,0.2345,0.2346,0.2351,0.2326,0.2333,0.232,0.2307,0.2306,0.2282,0.2282,0.2255,0.2253,0.2237,0.2241,0.2239,0.2231,0.2227,0.2234,0.2235,0.2233,0.223,0.2217,0.2217,0.2216,0.2216,0,0.2419,0.2398,0.2399,0.2375,0.237,0.2375,0.2355,0.2356,0.2341,0.2341,0.2339,0.2316,0.2312,0.2291,0.2281,0.2271,0.2281,0.2272,0.2286,0.2283,0.2299,0.2298,0.235,0.2356,0.2298,0.2298,0.2299,0,0.2444,0.2447,0.2424,0.2422,0.2413,0.2409,0.2405,0.238,0.2377,0.2361,0.2364,0.2358,0.2351,0.2346,0.2328,0.2321,0.2313,0.2332,0.2312,0.2319,0.2314,0.2315,0.2315,0.2336,0.2337,0.2338,0.2338,0,0.2491,0.248,0.2474,0.2464,0.2459,0.245,0.244,0.244,0.2413,0.241,0.2405,0.24,0.2391,0.2385,0.2375,0.2366,0.2348,0.2345,0.2348,0.2355,0.2363,0.236,0.2298,0.2344,0.2343,0.2343,0.2342,0.2342,0.2528,0.253,0.2514,0.2509,0.2498,0.249,0.249,0.2475,0.247,0.246,0.2446,0.2443,0.2429,0.2414,0.2406,0.2404,0.2394,0.2398,0.2399,0.2401,0.2405,0.2363,0.2402,0.2402,0.2402,0.2402,0.2401,0,0.2574,0.2563,0.2558,0.2544,0.254,0.2523,0.2511,0.2509,0.2506,0.2495,0.2489,0.2484,0.2478,0.246,0.2453,0.2455,0.2447,0.2454,0.2454,0.2452,0.2414,0.2412,0.2461,0.2461,0.2461,0.2461,0.2461,0.2461,0.2598,0.26,0.2588,0.2586,0.2574,0.2571,0.2566,0.2558,0.2549,0.2544,0.2539,0.2527,0.2513,0.2505,0.2499,0.2494,0.2493,0.2503,0.2496,0.246,0.2455,0.2449,0.2448,0.2503,0.2503,0.2535,0.2535,0.2535]}]]